Location: Unspecified
(0.0000°N, 0.0000°E)
Time: 05:44:34
(UTC+00:00)

Courier 1B Rocket - Pass Details

Date: 12 April 2021
Orbit: 920 x 1202 km, 28.3° (Epoch: 16 May)

Event Time Altitude Azimuth Distance (km) Brightness Sun altitude
Rises 19:20:34 0° 251° (WSW) 3,691 9.1 -19.7°
Reaches altitude 10° 19:23:14 10° 256° (WSW) 2,780 8.4 -20.4°
Maximum altitude 19:29:48 52° 331° (NNW) 1,301 5.8 -22.0°
Enters shadow 19:35:11 18° 41° (NE) 2,432 6.8 -23.3°
